Theta_e
278 279 280 281 283 284 285 284 283 282 283 286 284 285 284 285 286 286 287 291 296 299 304 309 309 308 308 308 308 308 308 309 309 309 308 308 308 307
278 277 278 279 280 281 282 282 283 283 281 284 286 285 286 286 286 286 286 290 293 295 300 304 307 306 306 306 306 306 306 308 308 308 307 307 307 306
276 277 277 278 278 279 280 281 281 281 280 282 285 285 285 286 286 285 286 286 287 293 295 300 303 305 305 305 304 304 304 306 307 307 306 306 306 305
276 276 276 279 277 278 278 278 279 280 279 278 281 282 282 283 285 284 285 286 285 290 293 296 299 302 303 303 303 303 303 304 305 306 305 305 304 304
276 276 276 276 276 277 277 277 278 280 280 279 279 282 282 281 282 282 283 284 285 288 292 293 295 299 301 302 301 300 300 301 302 302 303 304 303 303
275 275 276 276 276 276 276 277 278 278 279 278 279 280 281 282 279 280 281 281 283 284 287 289 291 294 298 300 299 298 298 299 300 301 300 301 301 302
273 273 274 275 277 278 277 277 277 276 277 277 278 279 279 279 280 281 280 281 282 283 283 283 285 287 290 296 296 296 297 298 299 299 299 299 299 299
270 271 272 272 274 276 277 278 279 277 275 276 278 278 279 280 281 281 281 281 279 281 282 283 283 283 286 289 294 297 297 297 298 298 298 298 298 298
270 270 270 271 271 271 273 275 275 277 279 277 275 276 276 279 280 280 281 281 281 283 281 280 281 281 284 286 292 295 296 296 297 297 297 297 297 296
269 269 269 270 270 271 271 271 272 273 274 274 274 274 275 276 276 278 279 280 282 284 281 279 280 281 282 283 290 293 295 296 296 296 297 296 296 295
269 270 270 269 272 274 272 271 272 273 276 277 278 279 280 280 281 278 276 277 277 280 284 281 282 281 280 282 283 290 293 294 295 295 296 296 296 295
269 270 272 272 275 276 273 271 270 271 272 271 272 274 276 275 278 277 276 273 275 277 283 280 281 277 274 279 282 283 286 292 294 295 295 295 295 292
269 270 271 274 275 276 277 273 272 274 274 273 273 273 274 274 274 275 276 276 274 275 282 283 281 281 279 275 276 282 283 285 288 291 295 295 295 293
270 271 271 275 276 278 278 279 279 278 274 271 270 269 270 270 272 273 274 276 278 279 280 283 282 281 279 278 277 277 281 283 285 287 289 292 295 294
272 274 276 277 277 276 276 277 276 274 272 270 270 270 271 271 272 272 273 274 275 277 279 283 283 283 282 279 278 273 275 278 283 284 286 287 289 290
274 273 272 272 272 272 270 271 271 270 269 269 269 270 271 271 270 271 269 270 270 271 276 282 283 284 281 282 279 272 277 275 279 282 284 286 287 289
270 266 262 262 263 264 265 266 266 266 267 268 268 268 268 268 269 270 270 269 268 268 271 280 283 284 284 283 280 279 276 277 278 280 282 282 284 286
262 257 258 259 260 261 261 262 263 264 265 266 268 268 267 268 268 269 269 269 268 270 271 278 280 281 281 282 285 280 279 277 279 280 281 280 281 284
254 256 257 258 259 260 260 261 261 263 265 267 267 268 268 268 268 268 270 270 270 272 274 280 279 279 276 273 271 285 279 277 279 279 280 281 280 281
250 256 257 258 258 259 260 260 261 262 263 265 267 268 267 268 268 269 270 272 275 274 274 278 278 278 277 274 273 269 282 278 277 276 278 280 281 283
257 257 258 259 259 259 260 260 261 262 264 265 267 268 268 268 268 269 271 273 276 277 276 273 277 280 280 276 273 268 273 282 280 277 278 277 274 274
257 257 258 259 259 260 260 261 261 263 263 264 265 267 269 269 269 270 272 273 274 276 276 273 274 276 275 275 272 266 270 276 281 281 280 278 273 270
256 257 258 259 259 260 261 261 262 263 264 264 265 265 267 267 270 273 274 275 275 275 273 272 273 274 274 274 270 270 271 273 273 272 273 279 275 276
Wind_Speed
5 5 4 5 4 4 4 3 4 8 11 2 3 4 4 4 7 5 6 12 21 23 21 20 19 20 21 21 21 21 22 22 20 19 19 18 18 17
5 6 6 5 6 4 5 4 4 6 10 3 6 4 5 5 7 7 8 15 17 21 22 22 22 26 24 23 23 23 24 24 23 21 20 19 18 18
6 6 9 6 6 5 5 6 6 5 10 10 8 5 5 8 8 5 6 7 7 18 23 24 25 24 24 24 24 24 25 25 24 23 22 22 21 20
10 9 10 7 9 7 6 9 8 7 8 14 11 10 7 6 8 8 7 6 7 14 21 25 26 27 26 26 25 24 23 23 22 22 23 23 23 22
12 12 12 11 11 9 8 9 9 8 8 9 11 9 9 4 6 6 7 9 6 14 21 24 24 26 27 27 27 25 24 23 22 22 22 22 23 23
13 13 14 14 13 12 11 11 10 9 9 10 11 10 9 7 4 6 9 4 8 7 14 16 17 23 28 29 29 26 25 24 25 24 23 22 22 22
13 13 13 16 25 23 14 13 13 11 10 13 12 11 10 7 8 5 8 6 7 7 7 7 8 10 13 25 23 25 26 27 27 26 24 23 24 23
14 13 13 15 17 24 26 30 25 15 13 11 12 13 14 11 9 8 10 9 11 4 8 10 7 10 10 11 22 28 29 29 29 28 27 26 25 25
14 14 14 11 14 14 20 26 24 26 27 18 16 14 14 12 12 12 11 11 13 7 6 9 5 11 8 11 25 28 30 30 31 30 29 28 27 26
13 14 14 15 14 16 16 16 15 14 14 13 15 17 16 14 16 16 16 18 14 11 5 14 5 10 6 8 23 27 29 31 32 32 31 31 29 27
13 14 14 15 21 26 17 15 13 12 15 25 29 31 29 29 24 13 13 13 14 15 11 12 11 8 6 9 10 27 28 30 31 32 32 32 30 28
12 14 20 21 26 26 16 14 14 13 14 14 14 19 22 18 27 17 12 14 15 16 11 10 11 4 4 6 10 10 12 27 30 31 31 31 30 14
10 9 10 26 28 28 27 15 16 18 19 17 14 12 11 11 11 11 14 14 15 17 16 12 11 11 11 5 2 7 9 11 14 19 30 31 32 26
13 11 13 28 30 31 27 27 30 25 10 10 11 11 12 11 12 13 16 17 16 19 19 20 10 12 12 11 9 3 6 8 9 11 12 21 31 33
12 20 32 31 30 22 23 28 24 11 10 11 12 13 12 12 15 14 15 19 21 20 19 22 18 13 12 12 11 3 5 7 9 10 10 11 14 14
19 10 17 23 24 21 14 13 9 10 12 13 13 13 12 11 12 11 12 12 14 16 20 25 21 18 13 13 10 5 7 7 10 11 11 10 10 13
17 10 9 9 8 9 9 9 9 9 10 11 12 12 12 12 12 11 11 12 14 15 16 16 18 19 13 16 12 12 10 8 9 11 12 11 10 11
8 7 9 9 10 10 11 11 11 12 11 12 12 11 12 11 12 12 12 14 14 15 13 13 11 12 12 13 20 11 10 11 8 10 11 11 11 11
3 7 8 9 10 10 10 11 12 12 14 12 12 12 10 11 13 13 13 12 13 14 14 14 11 12 12 11 2 13 9 9 9 9 10 10 9 10
2 6 8 9 9 10 11 11 12 12 12 12 14 10 10 11 11 12 13 15 13 13 13 8 10 11 11 11 7 4 16 9 9 10 10 7 2 9
8 8 8 9 10 10 10 11 12 12 12 12 12 9 10 10 11 12 12 17 15 8 6 6 9 13 6 4 3 0 3 18 14 10 8 8 6 4
7 8 9 9 9 10 11 11 11 12 12 11 11 11 10 9 11 12 11 11 10 8 6 3 4 4 2 5 4 4 3 5 10 9 11 11 5 7
8 8 10 10 9 10 11 11 11 11 11 11 11 11 11 11 10 10 10 9 8 3 2 2 3 2 3 2 5 3 5 5 3 5 4 6 4 5
Wind_Direction
305 302 299 294 291 286 284 258 256 300 299 261 279 265 272 267 260 244 231 244 255 257 246 234 222 225 231 232 236 240 241 238 232 230 232 229 227 228
311 310 301 296 296 280 270 270 251 253 277 335 274 252 266 273 261 247 240 243 249 252 251 243 234 234 234 234 236 236 236 236 231 228 229 227 223 225
301 289 297 287 292 290 289 281 272 250 266 284 284 284 255 262 273 253 246 240 247 245 245 245 241 236 231 230 232 232 233 233 230 225 225 224 222 221
306 302 296 295 292 285 274 279 275 268 270 279 283 287 261 245 254 267 263 240 235 244 246 246 244 239 232 228 227 225 227 231 231 226 224 221 223 220
304 302 302 302 295 289 280 284 283 278 273 274 279 279 283 264 268 255 256 261 244 239 249 252 247 242 241 232 227 223 222 224 226 224 224 220 220 220
303 302 301 299 295 294 287 283 281 279 280 278 279 280 275 281 247 276 272 233 257 240 242 240 240 242 238 235 230 224 218 219 223 220 219 218 217 219
307 304 300 300 301 298 295 290 286 280 278 282 281 277 273 273 267 267 266 271 251 234 247 241 232 239 243 239 235 224 220 216 219 222 219 216 211 212
304 304 298 292 293 297 296 294 290 286 276 274 274 267 271 272 271 269 270 275 286 195 228 249 216 232 231 232 227 221 219 218 217 218 218 217 213 210
302 302 300 298 299 294 291 290 293 292 285 287 284 278 289 293 295 281 271 258 264 257 222 255 205 239 228 232 233 229 220 218 217 216 217 217 215 214
293 294 292 291 287 290 286 281 277 272 273 269 269 277 276 279 273 275 279 282 279 263 202 260 211 239 219 227 229 232 229 222 218 215 214 215 214 212
289 285 283 287 287 288 284 282 280 280 279 280 282 284 286 289 288 281 267 275 260 253 238 249 250 253 210 227 221 230 229 228 223 219 215 213 212 209
283 283 282 286 289 292 287 283 278 272 268 266 266 269 271 271 270 269 284 273 267 277 247 234 242 213 266 211 213 212 223 228 226 222 219 215 209 205
286 287 279 284 290 289 285 274 265 267 263 264 264 261 262 268 266 260 258 261 262 256 264 238 234 223 233 253 279 213 209 218 217 222 220 218 210 202
291 285 280 280 281 281 280 278 279 289 296 286 276 269 269 265 262 261 262 265 268 267 251 259 235 219 220 232 234 177 203 216 209 215 215 216 214 209
291 289 300 304 308 310 301 294 290 277 271 268 267 267 264 265 266 265 262 268 274 261 263 244 241 235 217 222 224 175 138 212 208 209 206 212 208 202
294 313 322 319 310 306 312 303 293 286 283 278 277 277 278 273 269 263 266 268 263 265 270 239 229 235 225 224 214 195 184 185 196 208 212 210 210 209
335 331 330 322 315 311 307 303 300 296 289 280 274 273 270 270 268 263 265 265 259 266 264 248 221 223 227 223 222 213 196 200 190 194 202 212 209 204
355 329 320 318 316 315 312 310 307 302 294 290 289 271 263 268 269 266 261 255 257 252 246 258 201 216 223 227 212 210 205 210 196 189 195 208 212 205
329 313 311 313 312 309 307 306 303 302 299 291 284 275 269 267 269 267 267 261 257 258 266 223 207 206 220 222 238 219 203 193 187 196 199 204 211 206
269 305 308 309 307 305 306 305 304 305 303 300 295 270 263 264 268 270 276 283 254 237 238 232 190 203 209 214 197 227 202 179 188 195 202 206 208 176
318 313 308 306 305 304 303 302 302 303 304 305 312 288 269 266 266 267 273 278 291 253 253 196 201 201 205 85 128 114 218 206 195 195 190 190 175 154
303 307 310 308 307 307 307 307 308 312 313 311 313 313 305 269 266 270 271 280 290 266 234 153 127 141 144 186 168 152 157 191 188 201 191 166 160 187
307 311 312 310 311 311 312 311 309 307 314 312 314 313 313 311 305 303 281 266 271 297 65 99 135 143 169 173 127 134 140 146 122 91 50 118 87 80